Weather History for San Luis Obispo, CA

Change the Weather History Date:

Wednesday, April 24, 2013

  Actual Average Record
Temperature  
Mean Temperature 55 °F -  
Max Temperature 60 °F 69 °F 85 °F (1966)
Min Temperature 53 °F 45 °F 38 °F (1975)
Degree Days  
Heating Degree Days 10    
Growing Degree Days 5 (Base 50)    
Moisture  
Dew Point 50 °F    
Average Humidity 82    
Maximum Humidity 93    
Minimum Humidity 72    
Precipitation  
Precipitation 0.00 in - - ()
Sea Level Pressure  
Sea Level Pressure 29.93 in    
Wind  
Wind Speed 3 mph (SSE)    
Max Wind Speed 9 mph    
Max Gust Speed -    
Visibility 10 miles    
Events      
Averages and records for this station are not official NWS values.
T = Trace of Precipitation, MM = Missing Value Source: NWS Daily Summary

Daily Weather History Graph

Daily Weather History Graph

Search for Another Location

Airport:

Trip Planner

Search our weather history database for the weather conditions in past years. The results will help you decide how hot, cold, wet, or windy it might be!

Date:

Astronomy

Apr. 24, 2013 Rise Set
Actual Time 6:18 AM PDT 7:43 PM PDT
Civil Twilight 5:52 AM PDT 8:09 PM PDT
Nautical Twilight 5:20 AM PDT 8:41 PM PDT
Astronomical Twilight 4:46 AM PDT 9:15 PM PDT
Moon 6:53 PM PDT (4/24) 5:23 AM PDT (4/24)
Length of Visible Light 14h 17m
Length of Day
13h 24m
Waxing Gibbous, 98% of the Moon is Illuminated
Apr 24
Waxing Gibbous
Apr 25
Full
May 2
Last Quarter
May 9
New
May 17
First Quarter

Hourly Weather History & Observations

Time (PDT) Temp. Dew Point Humidity Pressure Visibility Wind Dir Wind Speed Gust Speed Precip Events Conditions
12:56 AM 53.1 °F 50.0 °F 89% 29.90 in 10.0 mi West 4.6 mph - N/A   Overcast
1:56 AM 53.1 °F 50.0 °F 89% 29.89 in 10.0 mi West 4.6 mph - N/A   Overcast
2:56 AM 53.1 °F 50.0 °F 89% 29.89 in 10.0 mi ESE 4.6 mph - N/A   Overcast
3:56 AM 53.1 °F 51.1 °F 93% 29.89 in 7.0 mi East 5.8 mph - N/A   Overcast
4:56 AM 53.1 °F 51.1 °F 93% 29.89 in 5.0 mi Calm Calm - N/A   Overcast
5:56 AM 53.1 °F 51.1 °F 93% 29.90 in 10.0 mi Calm Calm - N/A   Overcast
6:56 AM 54.0 °F 50.0 °F 86% 29.91 in 10.0 mi SE 3.5 mph - N/A   Overcast
7:56 AM 54.0 °F 50.0 °F 86% 29.93 in 10.0 mi East 3.5 mph - N/A   Overcast
8:56 AM 54.0 °F 51.1 °F 90% 29.94 in 8.0 mi Calm Calm - N/A   Overcast
9:03 AM 55.4 °F 51.8 °F 88% 29.94 in 8.0 mi ESE 3.5 mph - N/A   Overcast
9:56 AM 57.0 °F 51.1 °F 81% 29.94 in 10.0 mi East 3.5 mph - N/A   Overcast
10:56 AM 57.9 °F 51.1 °F 78% 29.94 in 10.0 mi SSE 3.5 mph - N/A   Overcast
11:03 AM 57.2 °F 51.8 °F 82% 29.94 in 10.0 mi Calm Calm - N/A   Overcast
11:56 AM 57.9 °F 52.0 °F 81% 29.94 in 10.0 mi Variable 3.5 mph - N/A   Overcast
12:56 PM 57.0 °F 52.0 °F 83% 29.94 in 8.0 mi SW 8.1 mph - N/A   Overcast
1:56 PM 55.9 °F 52.0 °F 87% 29.94 in 10.0 mi SW 9.2 mph - N/A   Overcast
2:56 PM 55.9 °F 51.1 °F 84% 29.93 in 10.0 mi WSW 6.9 mph - N/A   Overcast
3:56 PM 55.9 °F 50.0 °F 80% 29.92 in 10.0 mi Calm Calm - N/A   Overcast
4:56 PM 57.0 °F 50.0 °F 77% 29.91 in 10.0 mi Variable 3.5 mph - N/A   Overcast
5:56 PM 57.0 °F 48.0 °F 72% 29.92 in 10.0 mi Calm Calm - N/A   Overcast
6:56 PM 57.0 °F 48.0 °F 72% 29.92 in 10.0 mi SSE 3.5 mph - N/A   Overcast
7:56 PM 57.0 °F 48.0 °F 72% 29.94 in 10.0 mi Calm Calm - N/A   Overcast
8:56 PM 57.0 °F 48.9 °F 74% 29.96 in 10.0 mi Calm Calm - N/A   Overcast
9:25 PM 57.2 °F 48.2 °F 72% 29.97 in 10.0 mi Calm Calm - N/A   Overcast
9:56 PM 57.0 °F 48.9 °F 74% 29.98 in 10.0 mi Calm Calm - N/A   Overcast
10:56 PM 57.0 °F 48.0 °F 72% 29.98 in 10.0 mi North - - N/A   Overcast
11:56 PM 55.9 °F 50.0 °F 80% 29.99 in 10.0 mi Calm Calm - N/A   Overcast